This demonstration page uses our WeatherBlox Daily Observations layout. Learn more.

40.92945, -100.16068

Hourly Observations for March 20, 2017

Temp ( °F °C ) Dew Point ( °F °C ) Humidity (%) Winds ( mph kmh ) Pressure ( in mb ) Visibility ( mi km ) Precip ( " mm )
12:15 am 00:15 Clear 56 13.5 39 4 53 53 NNE 12 19 29.94 1014 10 16.0934 0 0
12:35 am 00:35 Clear 55 12.6 39 4 56 56 NNE 8 13 29.97 1015 10 16.0934 0 0
12:55 am 00:55 Clear 52 11.3 39 3.9 61 61 N 9 15 29.97 1015 10 16.0934 0 0
1:15 am 01:15 Clear 51 10.8 39 3.9 63 63 N 3 6 29.97 1015 10 16.0934 0 0
1:35 am 01:35 Clear 49 9.2 38 3.3 67 67 NNW 3 6 30.03 1017 10 16.0934 0 0
1:55 am 01:55 Clear 47 8.4 38 3.2 70 70 NW 3 6 30.03 1017 10 16.0934 0 0
2:15 am 02:15 Clear 45 7.1 36 2.2 71 71 NNW 5 7 30.03 1017 10 16.0934 0 0
2:35 am 02:35 Clear 43 5.9 36 2 76 76 NW 8 13 30.06 1018 10 16.0934 0 0
2:55 am 02:55 Clear 43 6.1 36 2.4 77 77 NW 9 15 30.06 1018 10 16.0934 0 0
3:15 am 03:15 Clear 44 6.5 37 2.6 76 76 NNW 8 13 30.06 1018 10 16.0934 0 0
3:35 am 03:35 Clear 42 5.6 36 2 78 78 NW 9 15 30.06 1018 10 16.0934 0 0
3:55 am 03:55 Clear 40 4.5 34 1.1 79 79 NW 8 13 30.06 1018 10 16.0934 0 0
4:15 am 04:15 Clear 39 4.1 34 1 80 80 WNW 8 13 30.06 1018 10 16.0934 0 0
4:35 am 04:35 Clear 39 3.7 33 0.7 81 81 WNW 7 11 30.06 1018 10 16.0934 0 0
4:55 am 04:55 Clear 39 3.8 34 0.9 82 82 WNW 9 15 30.06 1018 10 16.0934 0 0
5:15 am 05:15 Clear 41 4.8 35 1.5 79 79 WNW 7 11 30.06 1018 10 16.0934 0 0
5:35 am 05:35 Clear 41 4.9 35 1.5 79 79 WNW 5 7 30.06 1018 10 16.0934 0 0
5:55 am 05:55 Clear 39 3.8 33 0.8 81 81 NW 7 11 30.06 1018 10 16.0934 0 0
6:15 am 06:15 Clear 38 3.4 33 0.4 81 81 N 8 13 30.09 1019 10 16.0934 0 0
6:35 am 06:35 Clear 43 5.9 36 2 76 76 N 10 17 30.06 1018 10 16.0934 0 0
6:55 am 06:55 Clear 42 5.8 35 1.6 75 75 W 10 17 30.09 1019 10 16.0934 0 0
7:15 am 07:15 Clear 39 3.7 33 0.7 81 81 NNW 7 11 30.12 1020 10 16.0934 0 0
7:35 am 07:35 Clear 41 5.2 34 1.3 76 76 N 8 13 30.09 1019 10 16.0934 0 0
7:55 am 07:55 Sunny 42 5.3 34 1.1 75 75 N 9 15 30.09 1019 10 16.0934 0 0
8:15 am 08:15 Sunny 43 6 35 1.4 73 73 N 8 13 30.09 1019 10 16.0934 0 0
8:35 am 08:35 Sunny 45 7 35 1.5 68 68 N 14 22 30.12 1020 10 16.0934 0 0
8:55 am 08:55 Sunny 46 7.6 35 1.6 66 66 N 10 17 30.15 1021 10 16.0934 0 0
9:15 am 09:15 Sunny 45 7.1 35 1.4 67 67 NNE 14 22 30.15 1021 10 16.0934 0 0
9:35 am 09:35 Sunny 45 7 35 1.4 68 68 NNE 13 20 30.15 1021 10 16.0934 0 0
9:55 am 09:55 Sunny 46 7.6 35 1.7 67 67 NNE 10 17 30.15 1021 10 16.0934 0 0
10:15 am 10:15 Sunny 47 8.5 36 2 64 64 NNE 12 19 30.12 1020 10 16.0934 0 0
10:35 am 10:35 Sunny 51 10.4 36 2.3 58 58 NE 17 28 30.12 1020 10 16.0934 0 0
10:55 am 10:55 Sunny 53 11.7 36 2.4 53 53 NE 16 26 30.12 1020 10 16.0934 0 0
11:15 am 11:15 Sunny 54 12.3 36 2 50 50 ENE 17 28 30.09 1019 10 16.0934 0 0
11:35 am 11:35 Sunny 55 12.9 36 2 48 48 NE 18 30 30.09 1019 10 16.0934 0 0
11:55 am 11:55 Sunny 56 13.4 35 1.7 45 45 NE 18 30 30.12 1020 10 16.0934 0 0
12:15 pm 12:15 Sunny 57 13.7 34 1.1 43 43 NNE 17 28 30.09 1019 10 16.0934 0 0
12:35 pm 12:35 Sunny 58 14.5 34 1 40 40 ENE 16 26 30.06 1018 10 16.0934 0 0
12:55 pm 12:55 Sunny 59 15 33 0.6 38 38 NE 16 26 30.06 1018 10 16.0934 0 0
1:15 pm 13:15 Sunny 59 15.1 33 0.4 37 37 NE 15 24 30.06 1018 10 16.0934 0 0
1:35 pm 13:35 Sunny 61 16.2 33 0.7 35 35 NE 14 22 30.06 1018 10 16.0934 0 0
1:55 pm 13:55 Sunny 63 17 33 0.8 34 34 ENE 16 26 30.06 1018 10 16.0934 0 0
2:15 pm 14:15 Sunny 63 17.2 33 0.5 33 33 ENE 13 20 30.06 1018 10 16.0934 0 0
2:35 pm 14:35 Sunny 63 17.3 34 0.9 33 33 NE 12 19 30 1016 10 16.0934 0 0
2:55 pm 14:55 Sunny 64 17.6 34 0.9 33 33 NE 15 24 30 1016 10 16.0934 0 0
3:15 pm 15:15 Sunny 64 18 34 0.9 32 32 NE 17 28 30 1016 10 16.0934 0 0
3:35 pm 15:35 Sunny 64 18 33 0.8 32 32 NE 15 24 30 1016 10 16.0934 0 0
3:55 pm 15:55 Sunny 64 17.8 33 0.4 31 31 NE 14 22 29.97 1015 10 16.0934 0 0
4:15 pm 16:15 Sunny 65 18.1 32 0.2 30 30 ENE 14 22 30 1016 10 16.0934 0 0
4:35 pm 16:35 Sunny 65 18.1 32 0 30 30 ENE 12 19 30 1016 10 16.0934 0 0
4:55 pm 16:55 Sunny 65 18.1 32 0 30 30 NE 15 24 30 1016 10 16.0934 0 0
5:15 pm 17:15 Sunny 64 18 31 -0.4 29 29 ENE 13 20 30 1016 10 16.0934 0 0
5:35 pm 17:35 Sunny 64 18 31 -0.5 29 29 NE 13 20 30 1016 10 16.0934 0 0
5:55 pm 17:55 Sunny 64 17.6 31 -0.7 29 29 ENE 15 24 30 1016 10 16.0934 0 0
6:15 pm 18:15 Sunny 63 17.4 30 -0.9 29 29 ENE 16 26 30 1016 10 16.0934 0 0
6:35 pm 18:35 Sunny 62 16.6 30 -1.3 30 30 ENE 15 24 30.03 1017 10 16.0934 0 0
6:55 pm 18:55 Sunny 60 15.4 29 -1.6 31 31 ENE 10 17 30.03 1017 10 16.0934 0 0
7:15 pm 19:15 Sunny 60 15.3 29 -1.8 31 31 ENE 12 19 30.03 1017 10 16.0934 0 0
7:35 pm 19:35 Sunny 58 14.4 28 -2 32 32 ENE 8 13 30.06 1018 10 16.0934 0 0
7:55 pm 19:55 Clear 56 13.1 28 -2.2 35 35 ENE 8 13 30.09 1019 10 16.0934 0 0
8:15 pm 20:15 Clear 54 12 28 -2 38 38 ENE 8 13 30.09 1019 10 16.0934 0 0
8:35 pm 20:35 Clear 53 11.7 28 -2 39 39 ENE 8 13 30.09 1019 7 11.26538 0 0
8:55 pm 20:55 Clear 51 10.6 29 -1.6 43 43 ENE 7 11 30.15 1021 10 16.0934 0 0
9:15 pm 21:15 Clear 50 9.9 28 -2.1 43 43 ENE 7 11 30.15 1021 10 16.0934 0 0
9:35 pm 21:35 Clear 47 8.5 27 -2.9 45 45 NE 7 11 30.18 1022 10 16.0934 0 0
9:55 pm 21:55 Clear 43 6.2 26 -3.2 51 51 NNE 7 11 30.21 1023 10 16.0934 0 0
10:15 pm 22:15 Clear 45 7.2 28 -2.5 50 50 NNE 9 15 30.21 1023 10 16.0934 0 0
10:35 pm 22:35 Clear 46 8 28 -2.4 48 48 NNE 7 11 30.24 1024 10 16.0934 0 0
10:55 pm 22:55 Clear 48 8.9 28 -2.5 45 45 NE 10 17 30.21 1023 10 16.0934 0 0
11:15 pm 23:15 Clear 48 8.9 27 -2.7 44 44 NE 10 17 30.21 1023 10 16.0934 0 0
11:35 pm 23:35 Clear 47 8.5 27 -2.6 46 46 NE 13 20 30.24 1024 10 16.0934 0 0
11:55 pm 23:55 Clear 47 8.4 27 -2.9 45 45 NE 10 17 30.24 1024 10 16.0934 0 0

Powered by AerisWeather